Year,Month,Day,Hour,Minute,Value (Times are PST for temperature in C)
2017,05,29,00,00,19.30
2017,05,29,00,01,19.30
2017,05,29,00,02,19.30
2017,05,29,00,03,19.30
2017,05,29,00,04,19.30
2017,05,29,00,05,19.30
2017,05,29,00,06,19.30
2017,05,29,00,07,19.30
2017,05,29,00,08,19.30
2017,05,29,00,09,19.30
2017,05,29,00,10,19.30
2017,05,29,00,11,19.30
2017,05,29,00,12,19.30
2017,05,29,00,13,19.30
2017,05,29,00,14,19.30
2017,05,29,00,15,19.30
2017,05,29,00,16,19.30
2017,05,29,00,17,19.30
2017,05,29,00,18,19.30
2017,05,29,00,19,19.30
2017,05,29,00,20,19.30
2017,05,29,00,21,19.20
2017,05,29,00,22,19.20
2017,05,29,00,23,19.20
2017,05,29,00,24,19.20
2017,05,29,00,25,19.20
2017,05,29,00,26,19.20
2017,05,29,00,27,19.20
2017,05,29,00,28,19.20
2017,05,29,00,29,19.10
2017,05,29,00,30,19.10
2017,05,29,00,31,19.10
2017,05,29,00,32,19.10
2017,05,29,00,33,19.10
2017,05,29,00,34,19.10
2017,05,29,00,35,19.00
2017,05,29,00,36,19.00
2017,05,29,00,37,19.00
2017,05,29,00,38,19.00
2017,05,29,00,39,18.90
2017,05,29,00,40,18.90
2017,05,29,00,41,18.90
2017,05,29,00,42,18.90
2017,05,29,00,43,18.80
2017,05,29,00,44,18.80
2017,05,29,00,45,18.80
2017,05,29,00,46,18.80
2017,05,29,00,47,18.80
2017,05,29,00,48,18.80
2017,05,29,00,49,18.80
2017,05,29,00,50,18.80
2017,05,29,00,51,18.80
2017,05,29,00,52,18.80
2017,05,29,00,53,18.80
2017,05,29,00,54,18.80
2017,05,29,00,55,18.90
2017,05,29,00,56,19.00
2017,05,29,00,57,19.10
2017,05,29,00,58,19.30
2017,05,29,00,59,19.40
2017,05,29,01,00,19.50
2017,05,29,01,01,19.60
2017,05,29,01,02,19.70
2017,05,29,01,03,19.80
2017,05,29,01,04,19.90
2017,05,29,01,05,19.90
2017,05,29,01,06,20.00
2017,05,29,01,07,20.10
2017,05,29,01,08,20.10
2017,05,29,01,09,20.20
2017,05,29,01,10,20.30
2017,05,29,01,11,20.30
2017,05,29,01,12,20.40
2017,05,29,01,13,20.40
2017,05,29,01,14,20.50
2017,05,29,01,15,20.50
2017,05,29,01,16,20.60
2017,05,29,01,17,20.60
2017,05,29,01,18,20.60
2017,05,29,01,19,20.70
2017,05,29,01,20,20.70
2017,05,29,01,21,20.70
2017,05,29,01,22,20.70
2017,05,29,01,23,20.70
2017,05,29,01,24,20.70
2017,05,29,01,25,20.70
2017,05,29,01,26,20.70
2017,05,29,01,27,20.70
2017,05,29,01,28,20.70
2017,05,29,01,29,20.70
2017,05,29,01,30,20.70
2017,05,29,01,31,20.70
2017,05,29,01,32,20.70
2017,05,29,01,33,20.60
2017,05,29,01,34,20.60
2017,05,29,01,35,20.60
2017,05,29,01,36,20.60
2017,05,29,01,37,20.60
2017,05,29,01,38,20.60
2017,05,29,01,39,20.60
2017,05,29,01,40,20.60
2017,05,29,01,41,20.50
2017,05,29,01,42,20.50
2017,05,29,01,43,20.40
2017,05,29,01,44,20.40
2017,05,29,01,45,20.40
2017,05,29,01,46,20.40
2017,05,29,01,47,20.30
2017,05,29,01,48,20.30
2017,05,29,01,49,20.30
2017,05,29,01,50,20.30
2017,05,29,01,51,20.30
2017,05,29,01,52,20.20
2017,05,29,01,53,20.20
2017,05,29,01,54,20.20
2017,05,29,01,55,20.20
2017,05,29,01,56,20.20
2017,05,29,01,57,20.10
2017,05,29,01,58,20.10
2017,05,29,01,59,20.10
2017,05,29,02,00,20.10
2017,05,29,02,01,20.10
2017,05,29,02,02,20.00
2017,05,29,02,03,20.00
2017,05,29,02,04,20.00
2017,05,29,02,05,19.90
2017,05,29,02,06,19.90
2017,05,29,02,07,19.90
2017,05,29,02,08,19.90
2017,05,29,02,09,19.90
2017,05,29,02,10,19.90
2017,05,29,02,11,19.90
2017,05,29,02,12,19.90
2017,05,29,02,13,19.90
2017,05,29,02,14,19.90
2017,05,29,02,15,19.90
2017,05,29,02,16,19.90
2017,05,29,02,17,19.90
2017,05,29,02,18,19.90
2017,05,29,02,19,19.90
2017,05,29,02,20,19.90
2017,05,29,02,21,19.90
2017,05,29,02,22,19.90
2017,05,29,02,23,19.90
2017,05,29,02,24,19.80
2017,05,29,02,25,19.80
2017,05,29,02,26,19.80
2017,05,29,02,27,19.80
2017,05,29,02,28,19.80
2017,05,29,02,29,19.80
2017,05,29,02,30,19.80
2017,05,29,02,31,19.80
2017,05,29,02,32,19.70
2017,05,29,02,33,19.70
2017,05,29,02,34,19.70
2017,05,29,02,35,19.70
2017,05,29,02,36,19.70
2017,05,29,02,37,19.60
2017,05,29,02,38,19.60
2017,05,29,02,39,19.60
2017,05,29,02,40,19.60
2017,05,29,02,41,19.60
2017,05,29,02,42,19.60
2017,05,29,02,43,19.50
2017,05,29,02,44,19.50
2017,05,29,02,45,19.50
2017,05,29,02,46,19.40
2017,05,29,02,47,19.40
2017,05,29,02,48,19.40
2017,05,29,02,49,19.40
2017,05,29,02,50,19.40
2017,05,29,02,51,19.40
2017,05,29,02,52,19.40
2017,05,29,02,53,19.40
2017,05,29,02,54,19.30
2017,05,29,02,55,19.30
2017,05,29,02,56,19.30
2017,05,29,02,57,19.30
2017,05,29,02,58,19.30
2017,05,29,02,59,19.30
2017,05,29,03,00,19.30
2017,05,29,03,01,19.30
2017,05,29,03,02,19.30
2017,05,29,03,03,19.30
2017,05,29,03,04,19.30
2017,05,29,03,05,19.30
2017,05,29,03,06,19.20
2017,05,29,03,07,19.20
2017,05,29,03,08,19.20
2017,05,29,03,09,19.20
2017,05,29,03,10,19.20
2017,05,29,03,11,19.20
2017,05,29,03,12,19.20
2017,05,29,03,13,19.10
2017,05,29,03,14,19.10
2017,05,29,03,15,19.10
2017,05,29,03,16,19.10
2017,05,29,03,17,19.00
2017,05,29,03,18,19.00
2017,05,29,03,19,18.90
2017,05,29,03,20,18.90
2017,05,29,03,21,18.90
2017,05,29,03,22,18.90
2017,05,29,03,23,18.80
2017,05,29,03,24,18.80
2017,05,29,03,25,18.80
2017,05,29,03,26,18.70
2017,05,29,03,27,18.70
2017,05,29,03,28,18.60
2017,05,29,03,29,18.60
2017,05,29,03,30,18.50
2017,05,29,03,31,18.50
2017,05,29,03,32,18.50
2017,05,29,03,33,18.40
2017,05,29,03,34,18.40
2017,05,29,03,35,18.40
2017,05,29,03,36,18.30
2017,05,29,03,37,18.30
2017,05,29,03,38,18.20
2017,05,29,03,39,18.20
2017,05,29,03,40,18.20
2017,05,29,03,41,18.10
2017,05,29,03,42,18.10
2017,05,29,03,43,18.10
2017,05,29,03,44,18.00
2017,05,29,03,45,17.90
2017,05,29,03,46,17.90
2017,05,29,03,47,17.80
2017,05,29,03,48,17.80
2017,05,29,03,49,17.70
2017,05,29,03,50,17.70
2017,05,29,03,51,17.60
2017,05,29,03,52,17.60
2017,05,29,03,53,17.50
2017,05,29,03,54,17.50
2017,05,29,03,55,17.50
2017,05,29,03,56,17.40
2017,05,29,03,57,17.40
2017,05,29,03,58,17.30
2017,05,29,03,59,17.30
2017,05,29,04,00,17.20
2017,05,29,04,01,17.20
2017,05,29,04,02,17.20
2017,05,29,04,03,17.10
2017,05,29,04,04,17.10
2017,05,29,04,05,17.00
2017,05,29,04,06,16.90
2017,05,29,04,07,16.90
2017,05,29,04,08,16.90
2017,05,29,04,09,16.80
2017,05,29,04,10,16.80
2017,05,29,04,11,16.80
2017,05,29,04,12,16.70
2017,05,29,04,13,16.70
2017,05,29,04,14,16.60
2017,05,29,04,15,16.60
2017,05,29,04,16,16.50
2017,05,29,04,17,16.50
2017,05,29,04,18,16.40
2017,05,29,04,19,16.40
2017,05,29,04,20,16.40
2017,05,29,04,21,16.30
2017,05,29,04,22,16.30
2017,05,29,04,23,16.30
2017,05,29,04,24,16.30
2017,05,29,04,25,16.20
2017,05,29,04,26,16.20
2017,05,29,04,27,16.20
2017,05,29,04,28,16.20
2017,05,29,04,29,16.10
2017,05,29,04,30,16.10
2017,05,29,04,31,16.10
2017,05,29,04,32,16.10
2017,05,29,04,33,16.10
2017,05,29,04,34,16.00
2017,05,29,04,35,16.00
2017,05,29,04,36,16.00
2017,05,29,04,37,15.90
2017,05,29,04,38,15.90
2017,05,29,04,39,15.90
2017,05,29,04,40,15.90
2017,05,29,04,41,15.90
2017,05,29,04,42,15.90
2017,05,29,04,43,15.80
2017,05,29,04,44,15.80
2017,05,29,04,45,15.80
2017,05,29,04,46,15.80
2017,05,29,04,47,15.70
2017,05,29,04,48,15.70
2017,05,29,04,49,15.70
2017,05,29,04,50,15.70
2017,05,29,04,51,15.70
2017,05,29,04,52,15.60
2017,05,29,04,53,15.60
2017,05,29,04,54,15.60
2017,05,29,04,55,15.50
2017,05,29,04,56,15.50
2017,05,29,04,57,15.50
2017,05,29,04,58,15.40
2017,05,29,04,59,15.40
2017,05,29,05,00,15.40
2017,05,29,05,01,15.40
2017,05,29,05,02,15.30
2017,05,29,05,03,15.30
2017,05,29,05,04,15.30
2017,05,29,05,05,15.30
2017,05,29,05,06,15.30
2017,05,29,05,07,15.20
2017,05,29,05,08,15.20
2017,05,29,05,09,15.20
2017,05,29,05,10,15.20
2017,05,29,05,11,15.10
2017,05,29,05,12,15.10
2017,05,29,05,13,15.10
2017,05,29,05,14,15.10
2017,05,29,05,15,15.00
2017,05,29,05,16,15.00
2017,05,29,05,17,15.00
2017,05,29,05,18,14.90
2017,05,29,05,19,14.90
2017,05,29,05,20,14.90
2017,05,29,05,21,14.90
2017,05,29,05,22,14.80
2017,05,29,05,23,14.80
2017,05,29,05,24,14.80
2017,05,29,05,25,14.80
2017,05,29,05,26,14.80
2017,05,29,05,27,14.70
2017,05,29,05,28,14.70
2017,05,29,05,29,14.70
2017,05,29,05,30,14.70
2017,05,29,05,31,14.60
2017,05,29,05,32,14.60
2017,05,29,05,33,14.60
2017,05,29,05,34,14.60
2017,05,29,05,35,14.50
2017,05,29,05,36,14.50
2017,05,29,05,37,14.50
2017,05,29,05,38,14.50
2017,05,29,05,39,14.40
2017,05,29,05,40,14.40
2017,05,29,05,41,14.40
2017,05,29,05,42,14.40
2017,05,29,05,43,14.40
2017,05,29,05,44,14.40
2017,05,29,05,45,14.40
2017,05,29,05,46,14.30
2017,05,29,05,47,14.30
2017,05,29,05,48,14.30
2017,05,29,05,49,14.30
2017,05,29,05,50,14.30
2017,05,29,05,51,14.30
2017,05,29,05,52,14.30
2017,05,29,05,53,14.30
2017,05,29,05,54,14.30
2017,05,29,05,55,14.30
2017,05,29,05,56,14.20
2017,05,29,05,57,14.20
2017,05,29,05,58,14.20
2017,05,29,05,59,14.20
2017,05,29,06,00,14.20
2017,05,29,06,01,14.20
2017,05,29,06,02,14.20
2017,05,29,06,03,14.20
2017,05,29,06,04,14.20
2017,05,29,06,05,14.20
2017,05,29,06,06,14.20
2017,05,29,06,07,14.20
2017,05,29,06,08,14.20
2017,05,29,06,09,14.20
2017,05,29,06,10,14.20
2017,05,29,06,11,14.20
2017,05,29,06,12,14.20
2017,05,29,06,13,14.20
2017,05,29,06,14,14.20
2017,05,29,06,15,14.20
2017,05,29,06,16,14.20
2017,05,29,06,17,14.20
2017,05,29,06,18,14.20
2017,05,29,06,19,14.20
2017,05,29,06,20,14.20
2017,05,29,06,21,14.20
2017,05,29,06,22,14.20
2017,05,29,06,23,14.20
2017,05,29,06,24,14.20
2017,05,29,06,25,14.20
2017,05,29,06,26,14.10
2017,05,29,06,27,14.10
2017,05,29,06,28,14.10
2017,05,29,06,29,14.10
2017,05,29,06,30,14.10
2017,05,29,06,31,14.10
2017,05,29,06,32,14.10
2017,05,29,06,33,14.10
2017,05,29,06,34,14.20
2017,05,29,06,35,14.20
2017,05,29,06,36,14.20
2017,05,29,06,37,14.20
2017,05,29,06,38,14.20
2017,05,29,06,39,14.30
2017,05,29,06,40,14.30
2017,05,29,06,41,14.30
2017,05,29,06,42,14.30
2017,05,29,06,43,14.40
2017,05,29,06,44,14.40
2017,05,29,06,45,14.50
2017,05,29,06,46,14.50
2017,05,29,06,47,14.60
2017,05,29,06,48,14.60
2017,05,29,06,49,14.70
2017,05,29,06,50,14.80
2017,05,29,06,51,14.80
2017,05,29,06,52,14.80
2017,05,29,06,53,14.90
2017,05,29,06,54,14.90
2017,05,29,06,55,14.90
2017,05,29,06,56,15.00
2017,05,29,06,57,15.00
2017,05,29,06,58,15.00
2017,05,29,06,59,15.10
2017,05,29,07,00,15.10
2017,05,29,07,01,15.10
2017,05,29,07,02,15.20
2017,05,29,07,03,15.20
2017,05,29,07,04,15.30
2017,05,29,07,05,15.30
2017,05,29,07,06,15.30
2017,05,29,07,07,15.40
2017,05,29,07,08,15.40
2017,05,29,07,09,15.50
2017,05,29,07,10,15.60
2017,05,29,07,11,15.60
2017,05,29,07,12,15.70
2017,05,29,07,13,15.70
2017,05,29,07,14,15.80
2017,05,29,07,15,15.80
2017,05,29,07,16,15.90
2017,05,29,07,17,16.00
2017,05,29,07,18,16.10
2017,05,29,07,19,16.10
2017,05,29,07,20,16.20
2017,05,29,07,21,16.20
2017,05,29,07,22,16.30
2017,05,29,07,23,16.30
2017,05,29,07,24,16.40
2017,05,29,07,25,16.50
2017,05,29,07,26,16.50
2017,05,29,07,27,16.60
2017,05,29,07,28,16.70
2017,05,29,07,29,16.70
2017,05,29,07,30,16.70
2017,05,29,07,31,16.80
2017,05,29,07,32,16.90
2017,05,29,07,33,16.90
2017,05,29,07,34,17.00
2017,05,29,07,35,17.00
2017,05,29,07,36,17.10
2017,05,29,07,37,17.20
2017,05,29,07,38,17.20
2017,05,29,07,39,17.30
2017,05,29,07,40,17.30
2017,05,29,07,41,17.40
2017,05,29,07,42,17.50
2017,05,29,07,43,17.50
2017,05,29,07,44,17.60
2017,05,29,07,45,17.60
2017,05,29,07,46,17.70
2017,05,29,07,47,17.70
2017,05,29,07,48,17.80
2017,05,29,07,49,17.80
2017,05,29,07,50,17.80
2017,05,29,07,51,17.90
2017,05,29,07,52,17.90
2017,05,29,07,53,17.90
2017,05,29,07,54,18.00
2017,05,29,07,55,18.00
2017,05,29,07,56,18.10
2017,05,29,07,57,18.10
2017,05,29,07,58,18.10
2017,05,29,07,59,18.20
2017,05,29,08,00,18.20
2017,05,29,08,01,18.30
2017,05,29,08,02,18.30
2017,05,29,08,03,18.40
2017,05,29,08,04,18.40
2017,05,29,08,05,18.50
2017,05,29,08,06,18.60
2017,05,29,08,07,18.60
2017,05,29,08,08,18.70
2017,05,29,08,09,18.70
2017,05,29,08,10,18.80
2017,05,29,08,11,18.80
2017,05,29,08,12,18.80
2017,05,29,08,13,18.90
2017,05,29,08,14,18.90
2017,05,29,08,15,19.00
2017,05,29,08,16,19.00
2017,05,29,08,17,19.10
2017,05,29,08,18,19.10
2017,05,29,08,19,19.20
2017,05,29,08,20,19.20
2017,05,29,08,21,19.30
2017,05,29,08,22,19.30
2017,05,29,08,23,19.30
2017,05,29,08,24,19.40
2017,05,29,08,25,19.40
2017,05,29,08,26,19.40
2017,05,29,08,27,19.50
2017,05,29,08,28,19.50
2017,05,29,08,29,19.50
2017,05,29,08,30,19.60
2017,05,29,08,31,19.60
2017,05,29,08,32,19.60
2017,05,29,08,33,19.60
2017,05,29,08,34,19.70
2017,05,29,08,35,19.70
2017,05,29,08,36,19.70
2017,05,29,08,37,19.80
2017,05,29,08,38,19.80
2017,05,29,08,39,19.80
2017,05,29,08,40,19.90
2017,05,29,08,41,19.90
2017,05,29,08,42,19.90
2017,05,29,08,43,19.90
2017,05,29,08,44,19.90
2017,05,29,08,45,19.90
2017,05,29,08,46,19.90
2017,05,29,08,47,19.90
2017,05,29,08,48,20.00
2017,05,29,08,49,20.00
2017,05,29,08,50,20.00
2017,05,29,08,51,20.10
2017,05,29,08,52,20.10
2017,05,29,08,53,20.10
2017,05,29,08,54,20.20
2017,05,29,08,55,20.20
2017,05,29,08,56,20.20
2017,05,29,08,57,20.30
2017,05,29,08,58,20.30
2017,05,29,08,59,20.40
2017,05,29,09,00,20.40
2017,05,29,09,01,20.40
2017,05,29,09,02,20.40
2017,05,29,09,03,20.50
2017,05,29,09,04,20.50
2017,05,29,09,05,20.50
2017,05,29,09,06,20.60
2017,05,29,09,07,20.60
2017,05,29,09,08,20.60
2017,05,29,09,09,20.60
2017,05,29,09,10,20.70
2017,05,29,09,11,20.70
2017,05,29,09,12,20.80
2017,05,29,09,13,20.80
2017,05,29,09,14,20.80
2017,05,29,09,15,20.80
2017,05,29,09,16,20.70
2017,05,29,09,17,20.60
2017,05,29,09,18,20.60
2017,05,29,09,19,20.60
2017,05,29,09,20,20.60
2017,05,29,09,21,20.70
2017,05,29,09,22,20.70
2017,05,29,09,23,20.80
2017,05,29,09,24,20.90
2017,05,29,09,25,20.90
2017,05,29,09,26,21.00
2017,05,29,09,27,21.00
2017,05,29,09,28,21.10
2017,05,29,09,29,21.10
2017,05,29,09,30,21.20
2017,05,29,09,31,21.20
2017,05,29,09,32,21.30
2017,05,29,09,33,21.30
2017,05,29,09,34,21.30
2017,05,29,09,35,21.40
2017,05,29,09,36,21.40
2017,05,29,09,37,21.50
2017,05,29,09,38,21.60
2017,05,29,09,39,21.60
2017,05,29,09,40,21.60
2017,05,29,09,41,21.60
2017,05,29,09,42,21.60
2017,05,29,09,43,21.60
2017,05,29,09,44,21.70
2017,05,29,09,45,21.70
2017,05,29,09,46,21.80
2017,05,29,09,47,21.90
2017,05,29,09,48,21.90
2017,05,29,09,49,22.00
2017,05,29,09,50,22.10
2017,05,29,09,51,22.20
2017,05,29,09,52,22.20
2017,05,29,09,53,22.30
2017,05,29,09,54,22.30
2017,05,29,09,55,22.30
2017,05,29,09,56,22.40
2017,05,29,09,57,22.40
2017,05,29,09,58,22.40
2017,05,29,09,59,22.50
2017,05,29,10,00,22.50
2017,05,29,10,01,22.60
2017,05,29,10,02,22.60
2017,05,29,10,03,22.60
2017,05,29,10,04,22.70
2017,05,29,10,05,22.70
2017,05,29,10,06,22.70
2017,05,29,10,07,22.70
2017,05,29,10,08,22.70
2017,05,29,10,09,22.70
2017,05,29,10,10,22.70
2017,05,29,10,11,22.70
2017,05,29,10,12,22.60
2017,05,29,10,13,22.60
2017,05,29,10,14,22.50
2017,05,29,10,15,22.50
2017,05,29,10,16,22.60
2017,05,29,10,17,22.60
2017,05,29,10,18,22.60
2017,05,29,10,19,22.50
2017,05,29,10,20,22.40
2017,05,29,10,21,22.40
2017,05,29,10,22,22.40
2017,05,29,10,23,22.30
2017,05,29,10,24,22.30
2017,05,29,10,25,22.30
2017,05,29,10,26,22.30
2017,05,29,10,27,22.40
2017,05,29,10,28,22.40
2017,05,29,10,29,22.30
2017,05,29,10,30,22.30
2017,05,29,10,31,22.20
2017,05,29,10,32,22.10
2017,05,29,10,33,22.00
2017,05,29,10,34,21.90
2017,05,29,10,35,21.90
2017,05,29,10,36,21.90
2017,05,29,10,37,21.90
2017,05,29,10,38,21.90
2017,05,29,10,39,22.00
2017,05,29,10,40,22.10
2017,05,29,10,41,22.10
2017,05,29,10,42,22.20
2017,05,29,10,43,22.20
2017,05,29,10,44,22.20
2017,05,29,10,45,22.20
2017,05,29,10,46,22.20
2017,05,29,10,47,22.10
2017,05,29,10,48,22.00
2017,05,29,10,49,22.00
2017,05,29,10,50,22.00
2017,05,29,10,51,21.90
2017,05,29,10,52,21.90
2017,05,29,10,53,21.90
2017,05,29,10,54,21.80
2017,05,29,10,55,21.80
2017,05,29,10,56,21.80
2017,05,29,10,57,21.80
2017,05,29,10,58,21.80
2017,05,29,10,59,21.80
2017,05,29,11,00,21.80
2017,05,29,11,01,21.90
2017,05,29,11,02,21.90
2017,05,29,11,03,21.90
2017,05,29,11,04,21.90
2017,05,29,11,05,21.90
2017,05,29,11,06,21.90
2017,05,29,11,07,21.90
2017,05,29,11,08,22.00
2017,05,29,11,09,22.00
2017,05,29,11,10,22.00
2017,05,29,11,11,22.00
2017,05,29,11,12,21.90
2017,05,29,11,13,21.90
2017,05,29,11,14,21.90
2017,05,29,11,15,21.90
2017,05,29,11,16,21.90
2017,05,29,11,17,21.90
2017,05,29,11,18,22.00
2017,05,29,11,19,22.00
2017,05,29,11,20,22.10
2017,05,29,11,21,22.10
2017,05,29,11,22,22.20
2017,05,29,11,23,22.20
2017,05,29,11,24,22.10
2017,05,29,11,25,22.00
2017,05,29,11,26,21.90
2017,05,29,11,27,21.90
2017,05,29,11,28,21.90
2017,05,29,11,29,21.80
2017,05,29,11,30,21.80
2017,05,29,11,31,21.80
2017,05,29,11,32,21.80
2017,05,29,11,33,21.80
2017,05,29,11,34,21.80
2017,05,29,11,35,21.80
2017,05,29,11,36,21.70
2017,05,29,11,37,21.70
2017,05,29,11,38,21.70
2017,05,29,11,39,21.70
2017,05,29,11,40,21.70
2017,05,29,11,41,21.70
2017,05,29,11,42,21.70
2017,05,29,11,43,21.70
2017,05,29,11,44,21.80
2017,05,29,11,45,21.70
2017,05,29,11,46,21.70
2017,05,29,11,47,21.70
2017,05,29,11,48,21.70
2017,05,29,11,49,21.70
2017,05,29,11,50,21.70
2017,05,29,11,51,21.80
2017,05,29,11,52,21.90
2017,05,29,11,53,21.90
2017,05,29,11,54,21.90
2017,05,29,11,55,21.90
2017,05,29,11,56,21.90
2017,05,29,11,57,21.90
2017,05,29,11,58,21.90
2017,05,29,11,59,21.90
2017,05,29,12,00,22.00
2017,05,29,12,01,22.00
2017,05,29,12,02,22.00
2017,05,29,12,03,22.10
2017,05,29,12,04,22.20
2017,05,29,12,05,22.20
2017,05,29,12,06,22.20
2017,05,29,12,07,22.20
2017,05,29,12,08,22.20
2017,05,29,12,09,22.20
2017,05,29,12,10,22.20
2017,05,29,12,11,22.20
2017,05,29,12,12,22.20
2017,05,29,12,13,22.20
2017,05,29,12,14,22.30
2017,05,29,12,15,22.30
2017,05,29,12,16,22.30
2017,05,29,12,17,22.40
2017,05,29,12,18,22.50
2017,05,29,12,19,22.60
2017,05,29,12,20,22.60
2017,05,29,12,21,22.60
2017,05,29,12,22,22.50
2017,05,29,12,23,22.50
2017,05,29,12,24,22.40
2017,05,29,12,25,22.30
2017,05,29,12,26,22.30
2017,05,29,12,27,22.20
2017,05,29,12,28,22.20
2017,05,29,12,29,22.20
2017,05,29,12,30,22.30
2017,05,29,12,31,22.40
2017,05,29,12,32,22.50
2017,05,29,12,33,22.50
2017,05,29,12,34,22.60
2017,05,29,12,35,22.60
2017,05,29,12,36,22.70
2017,05,29,12,37,22.70
2017,05,29,12,38,22.70
2017,05,29,12,39,22.70
2017,05,29,12,40,22.60
2017,05,29,12,41,22.60
2017,05,29,12,42,22.50
2017,05,29,12,43,22.30
2017,05,29,12,44,22.20
2017,05,29,12,45,22.20
2017,05,29,12,46,22.20
2017,05,29,12,47,22.20
2017,05,29,12,48,22.20
2017,05,29,12,49,22.20
2017,05,29,12,50,22.20
2017,05,29,12,51,22.30
2017,05,29,12,52,22.30
2017,05,29,12,53,22.40
2017,05,29,12,54,22.50
2017,05,29,12,55,22.50
2017,05,29,12,56,22.60
2017,05,29,12,57,22.60
2017,05,29,12,58,22.70
2017,05,29,12,59,22.80
2017,05,29,13,00,22.90
2017,05,29,13,01,23.00
2017,05,29,13,02,23.10
2017,05,29,13,03,23.10
2017,05,29,13,04,23.20
2017,05,29,13,05,23.20
2017,05,29,13,06,23.20
2017,05,29,13,07,23.30
2017,05,29,13,08,23.30
2017,05,29,13,09,23.50
2017,05,29,13,10,23.60
2017,05,29,13,11,23.80
2017,05,29,13,12,23.90
2017,05,29,13,13,24.00
2017,05,29,13,14,24.00
2017,05,29,13,15,24.00
2017,05,29,13,16,23.90
2017,05,29,13,17,23.90
2017,05,29,13,18,23.80
2017,05,29,13,19,23.80
2017,05,29,13,20,23.80
2017,05,29,13,21,23.80
2017,05,29,13,22,23.80
2017,05,29,13,23,23.90
2017,05,29,13,24,24.00
2017,05,29,13,25,24.00
2017,05,29,13,26,24.10
2017,05,29,13,27,24.10
2017,05,29,13,28,24.20
2017,05,29,13,29,24.30
2017,05,29,13,30,24.40
2017,05,29,13,31,24.40
2017,05,29,13,32,24.50
2017,05,29,13,33,24.40
2017,05,29,13,34,24.40
2017,05,29,13,35,24.40
2017,05,29,13,36,24.30
2017,05,29,13,37,24.30
2017,05,29,13,38,24.40
2017,05,29,13,39,24.40
2017,05,29,13,40,24.30
2017,05,29,13,41,24.40
2017,05,29,13,42,24.50
2017,05,29,13,43,24.50
2017,05,29,13,44,24.60
2017,05,29,13,45,24.70
2017,05,29,13,46,24.70
2017,05,29,13,47,24.70
2017,05,29,13,48,24.80
2017,05,29,13,49,24.80
2017,05,29,13,50,24.80
2017,05,29,13,51,24.80
2017,05,29,13,52,24.80
2017,05,29,13,53,24.80
2017,05,29,13,54,24.90
2017,05,29,13,55,24.90
2017,05,29,13,56,24.90
2017,05,29,13,57,24.90
2017,05,29,13,58,25.00
2017,05,29,13,59,25.10
2017,05,29,14,00,25.10
2017,05,29,14,01,25.20
2017,05,29,14,02,25.20
2017,05,29,14,03,25.40
2017,05,29,14,04,25.40
2017,05,29,14,05,25.50
2017,05,29,14,06,25.50
2017,05,29,14,07,25.60
2017,05,29,14,08,25.70
2017,05,29,14,09,25.80
2017,05,29,14,10,25.80
2017,05,29,14,11,25.80
2017,05,29,14,12,25.60
2017,05,29,14,13,25.50
2017,05,29,14,14,25.40
2017,05,29,14,15,25.40
2017,05,29,14,16,25.40
2017,05,29,14,17,25.40
2017,05,29,14,18,25.50
2017,05,29,14,19,25.50
2017,05,29,14,20,25.40
2017,05,29,14,21,25.50
2017,05,29,14,22,25.50
2017,05,29,14,23,25.60
2017,05,29,14,24,25.70
2017,05,29,14,25,25.70
2017,05,29,14,26,25.80
2017,05,29,14,27,25.90
2017,05,29,14,28,25.80
2017,05,29,14,29,25.90
2017,05,29,14,30,25.90
2017,05,29,14,31,26.00
2017,05,29,14,32,26.10
2017,05,29,14,33,26.20
2017,05,29,14,34,26.30
2017,05,29,14,35,26.30
2017,05,29,14,36,26.40
2017,05,29,14,37,26.40
2017,05,29,14,38,26.40
2017,05,29,14,39,26.30
2017,05,29,14,40,26.30
2017,05,29,14,41,26.30
2017,05,29,14,42,26.30
2017,05,29,14,43,26.30
2017,05,29,14,44,26.40
2017,05,29,14,45,26.30
2017,05,29,14,46,26.40
2017,05,29,14,47,26.40
2017,05,29,14,48,26.30
2017,05,29,14,49,26.40
2017,05,29,14,50,26.40
2017,05,29,14,51,26.50
2017,05,29,14,52,26.50
2017,05,29,14,53,26.50
2017,05,29,14,54,26.50
2017,05,29,14,55,26.50
2017,05,29,14,56,26.50
2017,05,29,14,57,26.60
2017,05,29,14,58,26.60
2017,05,29,14,59,26.60
2017,05,29,15,00,26.60
2017,05,29,15,01,26.60
2017,05,29,15,02,26.70
2017,05,29,15,03,26.60
2017,05,29,15,04,26.60
2017,05,29,15,05,26.60
2017,05,29,15,06,26.60
2017,05,29,15,07,26.60
2017,05,29,15,08,26.60
2017,05,29,15,09,26.50
2017,05,29,15,10,26.40
2017,05,29,15,11,26.40
2017,05,29,15,12,26.40
2017,05,29,15,13,26.40
2017,05,29,15,14,26.40
2017,05,29,15,15,26.40
2017,05,29,15,16,26.40
2017,05,29,15,17,26.40
2017,05,29,15,18,26.40
2017,05,29,15,19,26.40
2017,05,29,15,20,26.40
2017,05,29,15,21,26.40
2017,05,29,15,22,26.40
2017,05,29,15,23,26.40
2017,05,29,15,24,26.40
2017,05,29,15,25,26.50
2017,05,29,15,26,26.50
2017,05,29,15,27,26.60
2017,05,29,15,28,26.60
2017,05,29,15,29,26.50
2017,05,29,15,30,26.50
2017,05,29,15,31,26.40
2017,05,29,15,32,26.30
2017,05,29,15,33,26.30
2017,05,29,15,34,26.30
2017,05,29,15,35,26.30
2017,05,29,15,36,26.30
2017,05,29,15,37,26.30
2017,05,29,15,38,26.30
2017,05,29,15,39,26.30
2017,05,29,15,40,26.30
2017,05,29,15,41,26.40
2017,05,29,15,42,26.40
2017,05,29,15,43,26.50
2017,05,29,15,44,26.50
2017,05,29,15,45,26.60
2017,05,29,15,46,26.60
2017,05,29,15,47,26.60
2017,05,29,15,48,26.60
2017,05,29,15,49,26.60
2017,05,29,15,50,26.60
2017,05,29,15,51,26.60
2017,05,29,15,52,26.50
2017,05,29,15,53,26.50
2017,05,29,15,54,26.50
2017,05,29,15,55,26.50
2017,05,29,15,56,26.50
2017,05,29,15,57,26.50
2017,05,29,15,58,26.40
2017,05,29,15,59,26.50
2017,05,29,16,00,26.50
2017,05,29,16,01,26.50
2017,05,29,16,02,26.50
2017,05,29,16,03,26.50
2017,05,29,16,04,26.60
2017,05,29,16,05,26.60
2017,05,29,16,06,26.60
2017,05,29,16,07,26.60
2017,05,29,16,08,26.50
2017,05,29,16,09,26.40
2017,05,29,16,10,26.30
2017,05,29,16,11,26.20
2017,05,29,16,12,26.10
2017,05,29,16,13,26.00
2017,05,29,16,14,26.00
2017,05,29,16,15,26.00
2017,05,29,16,16,26.10
2017,05,29,16,17,26.00
2017,05,29,16,18,26.00
2017,05,29,16,19,25.90
2017,05,29,16,20,25.90
2017,05,29,16,21,25.90
2017,05,29,16,22,25.80
2017,05,29,16,23,25.80
2017,05,29,16,24,25.80
2017,05,29,16,25,25.90
2017,05,29,16,26,25.90
2017,05,29,16,27,25.90
2017,05,29,16,28,26.00
2017,05,29,16,29,26.10
2017,05,29,16,30,26.10
2017,05,29,16,31,26.20
2017,05,29,16,32,26.20
2017,05,29,16,33,26.30
2017,05,29,16,34,26.40
2017,05,29,16,35,26.50
2017,05,29,16,36,26.50
2017,05,29,16,37,26.60
2017,05,29,16,38,26.60
2017,05,29,16,39,26.60
2017,05,29,16,40,26.70
2017,05,29,16,41,26.70
2017,05,29,16,42,26.80
2017,05,29,16,43,26.80
2017,05,29,16,44,26.80
2017,05,29,16,45,26.80
2017,05,29,16,46,26.80
2017,05,29,16,47,26.80
2017,05,29,16,48,26.80
2017,05,29,16,49,26.80
2017,05,29,16,50,26.80
2017,05,29,16,51,26.80
2017,05,29,16,52,26.80
2017,05,29,16,53,26.80
2017,05,29,16,54,26.80
2017,05,29,16,55,26.80
2017,05,29,16,56,26.80
2017,05,29,16,57,26.80
2017,05,29,16,58,26.80
2017,05,29,16,59,26.70
2017,05,29,17,00,26.70
2017,05,29,17,01,26.70
2017,05,29,17,02,26.70
2017,05,29,17,03,26.60
2017,05,29,17,04,26.60
2017,05,29,17,05,26.50
2017,05,29,17,06,26.50
2017,05,29,17,07,26.40
2017,05,29,17,08,26.50
2017,05,29,17,09,26.50
2017,05,29,17,10,26.60
2017,05,29,17,11,26.60
2017,05,29,17,12,26.60
2017,05,29,17,13,26.60
2017,05,29,17,14,26.60
2017,05,29,17,15,26.60
2017,05,29,17,16,26.50
2017,05,29,17,17,26.50
2017,05,29,17,18,26.50
2017,05,29,17,19,26.50